Location: Chiroubles
(46.1812°N, 4.6660°E)
Time: 16:14:15
(UTC+00:00)

Explorer 7 - Visible Passes

Search period start: 26 November 2020 00:00
Search period end: 06 December 2020 00:00
Orbit: 484 x 678 km, 50.3° (Epoch: 25 November)

Date Brightness Start Highest point End Pass type
(mag) Time Alt. Az. Time Alt. Az. Time Alt. Az.
26 Nov 7.6 04:28:24 45° NE 04:28:24 45° NE 04:31:30 10° ENE visible
26 Nov 7.2 06:04:42 12° WNW 06:08:24 49° N 06:12:13 10° E visible
27 Nov 7.6 04:32:56 44° NNE 04:32:56 44° NNE 04:36:12 10° ENE visible
27 Nov 7.1 06:09:15 11° WNW 06:13:09 56° NNE 06:17:01 10° E visible
28 Nov 7.5 04:37:28 44° NNE 04:37:28 44° NNE 04:40:56 10° ENE visible
28 Nov 6.9 06:13:46 10° WNW 06:17:53 68° NNE 06:21:47 10° ESE visible
29 Nov 7.4 04:41:58 47° NNE 04:41:58 47° NNE 04:45:42 10° ENE visible
29 Nov 6.8 06:18:22 10° WNW 06:22:33 89° NNE 06:26:28 10° ESE visible
30 Nov 7.2 04:46:28 51° N 04:46:31 51° N 04:50:29 10° E visible
30 Nov 6.9 06:23:03 10° WNW 06:27:10 66° SSW 06:31:03 10° SE visible
01 Dec 7.0 04:51:00 58° N 04:51:16 59° NNE 04:55:15 10° E visible
02 Dec 6.8 04:55:32 66° NNW 04:55:58 74° NNE 05:00:00 10° ESE visible
03 Dec 10.1 03:23:48 11° E 03:23:48 11° E 03:23:55 10° E visible
03 Dec 6.7 05:00:06 67° WNW 05:00:37 85° SSW 05:04:38 10° ESE visible
04 Dec 10.0 03:28:24 12° E 03:28:24 12° E 03:28:41 10° E visible
04 Dec 6.9 05:04:43 55° WSW 05:05:13 60° SSW 05:09:11 10° SE visible
05 Dec 10.0 03:33:04 12° E 03:33:04 12° E 03:33:27 10° E visible
05 Dec 7.4 05:09:23 40° SW 05:09:44 41° SW 05:13:32 10° SE visible
